Zurück zum Katalog

COSMOS 1375 DEB

AktivLEO
NORAD 16210·DEBRIS·🇷🇺 Russia

Gestartet Jun 6, 1982 von Plesetsk Cosmodrome

Loading…

Nächste Überflüge (nächste 24 Stunden)

TLE

AktuellSource: Space-Track

Epoche: Sep 14, 2026, 10:34 UTC

1 16210U 82055M   26257.44053539 -.00000068  00000-0  13008-4 0  9996
2 16210  65.8326 219.6267 0022133  18.5270  66.7701 13.74591189 52180

Verfolge COSMOS 1375 DEB in Echtzeit mit AllMySat

Download on the App Store